Showing default

HULIANWANG DIGUI-120, 67060

Orbit data source: Space-Track

HULIANWANG DIGUI-120, 67060 is a payload satellite owned by Zhongguo Xingwang (CN) in LEO that was launched on Thu, 11 Dec 2025 UTC via a CHANG ZHENG 12 launch vehicle from the Wenchang Satellite Launch Center (WSC). Payload-class satellites include a variety of spacecraft equipped with specific instruments for various scientific and technological missions. These include communications satellites like Starlink; space stations such as the ISS; scientific satellites like the Hubble; Earth observation satellites from companies like Planet Labs, Umbra, and HawkEye 360; GPS; miniature CubeSats for education and research; and military/defense satellites.

Loading next visibility...
Identifier
67060, 2025-295B
Orbit
LEO
Country
Flag of CNCN / PRC
Related business
Manufacturer
SECM
Mission
Operational Civil Communications
Bus & Motor
XINGWANG S, Unknown motor
Mass
~800 kg wet, ~800 kg dry
Launch date (UTC)
2025-12-11 (6 months ago)
Launch vehicle
CHANG ZHENG 12
Launch site
Wenchang Satellite Launch Center (WSC)
Object type
Payload
Rocket body
Debris
Shape & HBR
Box + 2 Pan, 14.5 m
Radar Cross Section
5.935 m², Large (>1 m²)

Expand to show TLE details & history
Last TLE update: 13 hours ago

TLE from 13 hours ago
0 HULIANWANG DIGUI-120
1 67060U 25295B   26171.29739321 -.00000090  00000-0  73878-4 0  9992
2 67060  50.0054  14.4898 0001048  97.2576 262.8416 13.29329558 25911
Epoch: 2026-06-20T07:08Z
TLE epoch observation values (Epoch: 2026-06-20T07:08:14.773Z)
Latitude
0.00004°
Longitude
-1.08576°
Altitude
1,149.898 km
Speed
7.279 km/s
True Right ascension
00h 57m 57s
True Declination
0° 00' 00"
Sunlit
Object was in daylight at epoch
Visualization orbit readout
Latitude
Unknown
Longitude
Unknown
Altitude
Unknown
Speed
Unknown
Apparent Right ascension
Unknown
Apparent Declination
Unknown
Sunlit
N/A
Visualization observer readout
Local Sidereal Time
07:15:31
Azimuth
Unknown
Elevation
Unknown
Doppler factor
Unknown
Orbital elements
Apogee altitude
1,150.787 km
Perigee altitude
1,149.209 km
Semi-major axis
7,528.135 km
Eccentricity
0.0001
Inclination
50.0054°
RAAN
14.4898°
Arg. of periapsis
97.2576°
True anomaly
262.82968°
Mean anomaly
262.8416°
Eccentric anomaly
262.83564°
Mean motion
3.32286 °/min
Orbital period
108.34 mins
BSTAR
0.000073878
Loading maneuver chart data...
Computing Atmospheric mass density...
Loading historical data...
Loading historical data...
Loading historical data...
Loading historical data...
Loading historical data...
Loading historical data...
Loading historical data...

Documentation

Showing up to 5 results
|